Location: Newark
(42.7133°N, 87.7910°W)
Time: 07:07:07
(UTC+00:00)

Tiros 1 - Pass Details

Date: 24 September 2019
Orbit: 630 x 664 km, 48.4° (Epoch: 20 October)

Event Time Altitude Azimuth Distance (km) Brightness Sun altitude
Rises 20:43:37 0° 289° (WNW) 2,964 11.0 30.8°
Reaches altitude 10° 20:46:04 10° 296° (WNW) 2,047 10.2 30.4°
Maximum altitude 20:50:35 44° 9° (N) 885 7.9 29.7°
Drops below altitude 10° 20:55:03 10° 82° (E) 2,023 9.3 29.0°
Sets 20:57:28 0° 89° (E) 2,926 10.1 28.6°
